| time (UTC) | temp C | wind direction | speed KPH | gust KPH | rain 1hr cm | rain 24hr cm | rain mn cm | humidity % | barometer mb |
| 20260506135900 | 8 | 151 | 0.0 | 3.2 | 0.00 | 0.00 | 0.00 | 99 | 1011.4 |
| 20260506135356 | 7 | 10 | 0.0 | 3.2 | 0.00 | 0.00 | 0.00 | 99 | 1011.4 |
| 20260506134852 | 7 | 69 | 0.0 | 4.8 | 0.00 | 0.00 | 0.00 | 99 | 1011.3 |
| 20260506134349 | 7 | 357 | 0.0 | 4.8 | 0.00 | 0.00 | 0.00 | 99 | 1011.5 |
| 20260506133846 | 7 | 216 | 0.0 | 4.8 | 0.00 | 0.00 | 0.00 | 99 | 1011.6 |
| 20260506133343 | 7 | 206 | 0.0 | 3.2 | 0.00 | 0.00 | 0.00 | 99 | 1011.2 |
| 20260506132839 | 7 | 184 | 3.2 | 4.8 | 0.00 | 0.00 | 0.00 | 99 | 1011.0 |
| 20260506132336 | 7 | 211 | 0.0 | 4.8 | 0.00 | 0.00 | 0.00 | 99 | 1011.0 |
| 20260506131835 | 7 | 119 | 0.0 | 4.8 | 0.00 | 0.00 | 0.00 | 99 | 1010.8 |
| 20260506131331 | 7 | 222 | 0.0 | 3.2 | 0.00 | 0.00 | 0.00 | 99 | 1010.8 |
| 20260506130828 | 7 | 277 | 1.6 | 4.8 | 0.00 | 0.00 | 0.00 | 99 | 1010.5 |
| 20260506130324 | 7 | 295 | 0.0 | 3.2 | 0.00 | 0.00 | 0.00 | 99 | 1010.8 |
| 20260506125822 | 7 | 237 | 0.0 | 3.2 | 0.00 | 0.00 | 0.00 | 99 | 1010.3 |
| 20260506125320 | 7 | 231 | 1.6 | 3.2 | 0.00 | 0.00 | 0.00 | 99 | 1010.2 |
| 20260506124819 | 7 | 135 | 3.2 | 4.8 | 0.00 | 0.00 | 0.00 | 99 | 1010.3 |
| 20260506124315 | 7 | 15 | 1.6 | 4.8 | 0.00 | 0.00 | 0.00 | 99 | 1010.4 |
| 20260506123813 | 7 | 68 | 1.6 | 3.2 | 0.00 | 0.00 | 0.00 | 99 | 1010.2 |
| 20260506123311 | 7 | 231 | 1.6 | 4.8 | 0.00 | 0.00 | 0.00 | 99 | 1010.3 |
| 20260506122808 | 7 | 189 | 0.0 | 3.2 | 0.00 | 0.00 | 0.00 | 99 | 1010.6 |
| 20260506122306 | 7 | 329 | 0.0 | 4.8 | 0.00 | 0.00 | 0.00 | 99 | 1010.4 |
| 20260506121803 | 7 | 221 | 0.0 | 4.8 | 0.00 | 0.00 | 0.00 | 99 | 1010.3 |
| 20260506121259 | 6 | 203 | 0.0 | 8.0 | 0.00 | 0.00 | 0.00 | 99 | 1010.5 |
| 20260506120757 | 7 | 271 | 0.0 | 1.6 | 0.00 | 0.00 | 0.00 | 99 | 1010.2 |
| 20260506120255 | 6 | 93 | 0.0 | 3.2 | 0.00 | 0.00 | 0.00 | 99 | 1010.1 |
| 20260506115752 | 6 | 97 | 1.6 | 3.2 | 0.00 | 0.00 | 0.00 | 99 | 1010.4 |
| 20260506115250 | 6 | 91 | 1.6 | 3.2 | 0.00 | 0.00 | 0.00 | 99 | 1010.3 |
| 20260506114747 | 6 | 343 | 0.0 | 3.2 | 0.00 | 0.00 | 0.00 | 99 | 1010.1 |
| 20260506114245 | 6 | 158 | 0.0 | 3.2 | 0.00 | 0.00 | 0.00 | 99 | 1009.9 |
| 20260506113743 | 6 | 225 | 0.0 | 3.2 | 0.00 | 0.00 | 0.00 | 99 | 1009.7 |
| 20260506113240 | 6 | 225 | 1.6 | 3.2 | 0.00 | 0.00 | 0.00 | 99 | 1009.7 |
| 20260506112737 | 6 | 41 | 0.0 | 3.2 | 0.00 | 0.00 | 0.00 | 99 | 1009.7 |
| 20260506112234 | 6 | 136 | 1.6 | 3.2 | 0.00 | 0.00 | 0.00 | 99 | 1009.6 |
| 20260506111731 | 6 | 79 | 0.0 | 8.0 | 0.00 | 0.00 | 0.00 | 99 | 1009.4 |
| 20260506111230 | 6 | 199 | 3.2 | 4.8 | 0.00 | 0.00 | 0.00 | 99 | 1009.4 |
| 20260506110726 | 6 | 113 | 0.0 | 4.8 | 0.00 | 0.00 | 0.00 | 99 | 1009.1 |
| 20260506110224 | 6 | 114 | 3.2 | 4.8 | 0.00 | 0.00 | 0.00 | 99 | 1009.3 |
| 20260506105720 | 6 | 158 | 0.0 | 4.8 | 0.00 | 0.00 | 0.00 | 99 | 1009.3 |
| 20260506105217 | 6 | 46 | 1.6 | 3.2 | 0.00 | 0.00 | 0.00 | 99 | 1009.5 |
| 20260506104715 | 6 | 106 | 0.0 | 4.8 | 0.00 | 0.00 | 0.00 | 99 | 1009.4 |
| 20260506104213 | 6 | 281 | 0.0 | 3.2 | 0.00 | 0.00 | 0.00 | 99 | 1009.3 |
| 20260506103710 | 6 | 145 | 0.0 | 3.2 | 0.00 | 0.00 | 0.00 | 99 | 1009.1 |
| 20260506103206 | 6 | 228 | 0.0 | 3.2 | 0.00 | 0.00 | 0.00 | 99 | 1008.8 |
| 20260506102705 | 6 | 311 | 0.0 | 4.8 | 0.00 | 0.00 | 0.00 | 99 | 1008.6 |
| 20260506102202 | 6 | 201 | 0.0 | 3.2 | 0.00 | 0.00 | 0.00 | 99 | 1008.5 |
| 20260506101659 | 6 | 290 | 0.0 | 3.2 | 0.00 | 0.00 | 0.00 | 99 | 1008.5 |
| 20260506101155 | 7 | 105 | 3.2 | 6.4 | 0.00 | 0.00 | 0.00 | 99 | 1008.6 |
| 20260506100654 | 7 | 95 | 1.6 | 4.8 | 0.00 | 0.00 | 0.00 | 99 | 1008.9 |
| 20260506100151 | 7 | 139 | 1.6 | 3.2 | 0.00 | 0.00 | 0.00 | 99 | 1008.9 |
| 20260506095650 | 7 | 122 | 0.0 | 3.2 | 0.00 | 0.00 | 0.00 | 99 | 1009.0 |
| 20260506095146 | 7 | 91 | 0.0 | 4.8 | 0.00 | 0.00 | 0.00 | 99 | 1009.3 |
| 20260506094643 | 7 | 79 | 1.6 | 3.2 | 0.00 | 0.00 | 0.00 | 99 | 1009.5 |
| 20260506094141 | 7 | 349 | 1.6 | 3.2 | 0.00 | 0.00 | 0.00 | 99 | 1009.6 |
| 20260506093640 | 7 | 224 | 0.0 | 1.6 | 0.00 | 0.00 | 0.00 | 99 | 1009.4 |
| 20260506093137 | 7 | 224 | 0.0 | 4.8 | 0.00 | 0.00 | 0.00 | 99 | 1009.4 |
| 20260506092634 | 7 | 127 | 0.0 | 1.6 | 0.00 | 0.00 | 0.00 | 99 | 1009.3 |
| 20260506092131 | 7 | 235 | 0.0 | 1.6 | 0.00 | 0.00 | 0.00 | 99 | 1009.3 |
| 20260506091629 | 7 | 219 | 0.0 | 3.2 | 0.00 | 0.00 | 0.00 | 99 | 1009.2 |
| 20260506091126 | 7 | 209 | 0.0 | 1.6 | 0.00 | 0.00 | 0.00 | 99 | 1008.9 |
| 20260506090625 | 7 | 29 | 0.0 | 1.6 | 0.00 | 0.00 | 0.00 | 99 | 1008.7 |
| 20260506090120 | 7 | 229 | 0.0 | 0.0 | 0.00 | 0.00 | 0.00 | 99 | 1008.8 |
| 20260506085617 | 7 | 224 | 0.0 | 3.2 | 0.00 | 0.00 | 0.00 | 99 | 1008.6 |
| 20260506085114 | 7 | 7 | 0.0 | 3.2 | 0.00 | 0.00 | 0.00 | 99 | 1008.6 |
| 20260506084610 | 7 | 42 | 0.0 | 3.2 | 0.00 | 0.00 | 0.00 | 99 | 1008.6 |
| 20260506084107 | 7 | 313 | 0.0 | 3.2 | 0.00 | 0.00 | 0.00 | 99 | 1008.9 |
| 20260506083604 | 7 | 42 | 0.0 | 3.2 | 0.00 | 0.00 | 0.00 | 99 | 1009.0 |
| 20260506083102 | 7 | 89 | 0.0 | 3.2 | 0.00 | 0.00 | 0.00 | 99 | 1009.2 |
| 20260506082558 | 7 | 121 | 1.6 | 3.2 | 0.00 | 0.00 | 0.00 | 99 | 1009.5 |
| 20260506082054 | 6 | 135 | 0.0 | 3.2 | 0.00 | 0.00 | 0.00 | 99 | 1009.4 |
| 20260506081552 | 7 | 116 | 0.0 | 3.2 | 0.00 | 0.00 | 0.00 | 99 | 1009.4 |
| 20260506081049 | 6 | 162 | 0.0 | 3.2 | 0.00 | 0.00 | 0.00 | 99 | 1009.3 |
| 20260506080547 | 6 | 193 | 0.0 | 3.2 | 0.00 | 0.00 | 0.00 | 99 | 1009.1 |
| 20260506073027 | 6 | 288 | 0.0 | 3.2 | 0.00 | 0.00 | 0.00 | 99 | 1008.7 |
| 20260506072525 | 6 | 304 | 0.0 | 3.2 | 0.00 | 0.00 | 0.00 | 99 | 1008.8 |
| 20260506072022 | 6 | 235 | 0.0 | 4.8 | 0.00 | 0.00 | 0.00 | 99 | 1009.0 |
| 20260506071520 | 6 | 23 | 1.6 | 3.2 | 0.00 | 0.00 | 0.00 | 99 | 1008.7 |
| 20260506071017 | 6 | 55 | 0.0 | 4.8 | 0.00 | 0.00 | 0.00 | 99 | 1008.9 |
| 20260506070514 | 6 | 233 | 0.0 | 3.2 | 0.00 | 0.00 | 0.00 | 99 | 1008.7 |
| 20260506062451 | 7 | 51 | 0.0 | 3.2 | 0.00 | 0.00 | 0.00 | 99 | 1008.8 |
| 20260506061947 | 7 | 91 | 0.0 | 3.2 | 0.00 | 0.00 | 0.00 | 99 | 1008.7 |
| 20260506061444 | 7 | 276 | 0.0 | 3.2 | 0.00 | 0.00 | 0.00 | 99 | 1008.7 |
| 20260506060942 | 7 | 66 | 0.0 | 3.2 | 0.00 | 0.00 | 0.00 | 99 | 1008.8 |
| 20260506060440 | 7 | 29 | 0.0 | 3.2 | 0.05 | 0.00 | 0.00 | 99 | 1008.8 |
| 20260506051412 | 7 | 204 | 1.6 | 3.2 | 0.00 | 0.00 | 0.00 | 99 | 1009.7 |
| 20260506050909 | 7 | 70 | 1.6 | 4.8 | 0.00 | 0.00 | 0.00 | 99 | 1009.6 |
| 20260506050406 | 7 | 243 | 1.6 | 4.8 | 0.00 | 0.00 | 0.00 | 99 | 1009.6 |
| 20260506044857 | 7 | 129 | 0.0 | 4.8 | 0.00 | 0.00 | 0.00 | 99 | 1009.7 |
| 20260506044355 | 7 | 36 | 1.6 | 4.8 | 0.00 | 0.00 | 0.00 | 99 | 1009.7 |
| 20260506043851 | 7 | 55 | 1.6 | 4.8 | 0.00 | 0.00 | 0.00 | 99 | 1009.8 |
| 20260506043349 | 8 | 106 | 0.0 | 3.2 | 0.00 | 0.00 | 0.00 | 99 | 1009.8 |
| 20260506042847 | 8 | 77 | 0.0 | 3.2 | 0.00 | 0.00 | 0.00 | 99 | 1009.7 |
| 20260506042346 | 8 | 35 | 0.0 | 3.2 | 0.00 | 0.00 | 0.00 | 99 | 1010.0 |
| 20260506041844 | 8 | 349 | 0.0 | 3.2 | 0.00 | 0.00 | 0.00 | 99 | 1009.9 |
| 20260506041341 | 8 | 69 | 1.6 | 3.2 | 0.00 | 0.00 | 0.00 | 99 | 1010.0 |
| 20260506040837 | 8 | 212 | 0.0 | 3.2 | 0.00 | 0.00 | 0.00 | 99 | 1010.0 |
| 20260506040335 | 8 | 57 | 1.6 | 3.2 | 0.00 | 0.00 | 0.00 | 99 | 1010.1 |
| 20260506035831 | 8 | 39 | 0.0 | 3.2 | 0.00 | 0.05 | 0.05 | 99 | 1010.2 |
| 20260506035329 | 8 | 271 | 1.6 | 3.2 | 0.00 | 0.05 | 0.05 | 99 | 1010.2 |
| 20260506034826 | 8 | 67 | 1.6 | 4.8 | 0.00 | 0.05 | 0.05 | 99 | 1010.3 |
| 20260506034323 | 8 | 160 | 0.0 | 6.4 | 0.00 | 0.05 | 0.05 | 99 | 1010.4 |
| 20260506033820 | 8 | 15 | 0.0 | 3.2 | 0.00 | 0.05 | 0.05 | 99 | 1010.4 |
| 20260506033317 | 8 | 145 | 0.0 | 4.8 | 0.00 | 0.05 | 0.05 | 99 | 1010.4 |
| 20260506032814 | 8 | 235 | 1.6 | 6.4 | 0.00 | 0.05 | 0.05 | 99 | 1010.4 |
| 20260506032311 | 8 | 237 | 3.2 | 4.8 | 0.00 | 0.05 | 0.05 | 99 | 1010.5 |
| 20260506031807 | 8 | 208 | 0.0 | 4.8 | 0.00 | 0.05 | 0.05 | 99 | 1010.2 |
| 20260506031305 | 8 | 156 | 1.6 | 3.2 | 0.00 | 0.05 | 0.05 | 99 | 1010.2 |
| 20260506030802 | 8 | 219 | 3.2 | 3.2 | 0.00 | 0.05 | 0.05 | 99 | 1010.4 |
| 20260506030300 | 8 | 44 | 0.0 | 1.6 | 0.00 | 0.05 | 0.05 | 99 | 1010.0 |
| 20260506025757 | 8 | 195 | 1.6 | 3.2 | 0.05 | 0.05 | 0.05 | 99 | 1010.1 |
| 20260506025253 | 8 | 211 | 3.2 | 3.2 | 0.05 | 0.05 | 0.05 | 99 | 1009.8 |
| 20260506024750 | 8 | 146 | 0.0 | 3.2 | 0.00 | 0.03 | 0.03 | 99 | 1009.9 |
| 20260506024247 | 8 | 207 | 1.6 | 3.2 | 0.00 | 0.03 | 0.03 | 99 | 1009.9 |
| 20260506023743 | 8 | 165 | 1.6 | 3.2 | 0.00 | 0.03 | 0.03 | 99 | 1009.7 |
| 20260506023240 | 8 | 117 | 0.0 | 4.8 | 0.00 | 0.03 | 0.03 | 99 | 1009.9 |
| 20260506022737 | 8 | 180 | 0.0 | 6.4 | 0.00 | 0.03 | 0.03 | 99 | 1009.8 |
| 20260506022235 | 8 | 9 | 0.0 | 3.2 | 0.00 | 0.03 | 0.03 | 99 | 1010.0 |
| 20260506021733 | 8 | 158 | 0.0 | 3.2 | 0.00 | 0.03 | 0.03 | 99 | 1009.9 |
| 20260506021229 | 8 | 66 | 0.0 | 3.2 | 0.00 | 0.03 | 0.03 | 99 | 1010.0 |
| 20260506020726 | 8 | 50 | 0.0 | 3.2 | 0.00 | 0.03 | 0.03 | 99 | 1010.0 |
| 20260506020224 | 8 | 207 | 0.0 | 1.6 | 0.00 | 0.03 | 0.03 | 99 | 1010.0 |
| 20260506015721 | 8 | 37 | 0.0 | 3.2 | 0.00 | 0.03 | 0.03 | 99 | 1009.9 |
| 20260506015219 | 8 | 156 | 0.0 | 1.6 | 0.00 | 0.03 | 0.03 | 99 | 1009.8 |
| 20260506014716 | 8 | 49 | 0.0 | 1.6 | 0.00 | 0.03 | 0.03 | 99 | 1010.1 |
| 20260506014212 | 8 | 145 | 0.0 | 1.6 | 0.00 | 0.03 | 0.03 | 99 | 1009.8 |
| 20260506013709 | 8 | 200 | 0.0 | 3.2 | 0.00 | 0.03 | 0.03 | 99 | 1009.7 |
| 20260506013206 | 8 | 146 | 0.0 | 4.8 | 0.00 | 0.03 | 0.03 | 99 | 1009.8 |
| 20260506012702 | 8 | 180 | 0.0 | 3.2 | 0.00 | 0.03 | 0.03 | 99 | 1009.8 |
| 20260506012159 | 8 | 199 | 0.0 | 3.2 | 0.00 | 0.03 | 0.03 | 99 | 1009.6 |
| 20260506011657 | 8 | 221 | 3.2 | 6.4 | 0.00 | 0.03 | 0.03 | 99 | 1009.7 |
| 20260506011153 | 8 | 168 | 0.0 | 4.8 | 0.00 | 0.03 | 0.03 | 99 | 1009.5 |
| 20260506010652 | 8 | 222 | 3.2 | 4.8 | 0.00 | 0.03 | 0.03 | 99 | 1009.8 |
| 20260506010148 | 8 | 187 | 3.2 | 4.8 | 0.00 | 0.03 | 0.03 | 99 | 1009.7 |
| 20260506005645 | 8 | 140 | 1.6 | 3.2 | 0.00 | 0.03 | 0.03 | 99 | 1009.6 |
| 20260506005142 | 8 | 132 | 1.6 | 3.2 | 0.00 | 0.03 | 0.03 | 99 | 1009.4 |
| 20260506004638 | 8 | 143 | 1.6 | 4.8 | 0.00 | 0.03 | 0.03 | 99 | 1009.3 |
| 20260506004136 | 8 | 180 | 0.0 | 3.2 | 0.00 | 0.03 | 0.03 | 99 | 1009.4 |
| 20260506003632 | 8 | 193 | 0.0 | 3.2 | 0.00 | 0.03 | 0.03 | 99 | 1009.4 |
| 20260506003128 | 8 | 320 | 0.0 | 3.2 | 0.00 | 0.03 | 0.03 | 99 | 1009.2 |
| 20260506002619 | 8 | 26 | 3.2 | 3.2 | 0.00 | 0.03 | 0.03 | 99 | 1009.3 |
| 20260506002115 | 8 | 130 | 0.0 | 3.2 | 0.05 | 0.03 | 0.03 | 99 | 1009.4 |
| 20260506001611 | 8 | 116 | 3.2 | 4.8 | 0.05 | 0.03 | 0.03 | 99 | 1008.3 |
| 20260506001108 | 8 | 146 | 1.6 | 3.2 | 0.00 | 0.03 | 0.03 | 99 | 1009.1 |
| 20260506000606 | 8 | 175 | 1.6 | 4.8 | 0.00 | 0.03 | 0.03 | 99 | 1009.2 |
| 20260505235601 | 8 | 143 | 1.6 | 4.8 | 0.00 | 0.03 | 0.03 | 99 | 1009.4 |
| 20260505235058 | 8 | 163 | 0.0 | 3.2 | 0.00 | 0.03 | 0.03 | 99 | 1009.8 |
| 20260505234555 | 8 | 89 | 0.0 | 3.2 | 0.00 | 0.03 | 0.03 | 99 | 1009.8 |
| 20260505234051 | 8 | 86 | 0.0 | 4.8 | 0.00 | 0.03 | 0.03 | 99 | 1009.4 |
| 20260505233549 | 8 | 112 | 1.6 | 4.8 | 0.00 | 0.03 | 0.03 | 99 | 1009.5 |
| 20260505233046 | 8 | 96 | 1.6 | 3.2 | 0.05 | 0.03 | 0.03 | 99 | 1009.4 |
| 20260505232544 | 8 | 348 | 3.2 | 4.8 | 0.05 | 0.03 | 0.03 | 99 | 1009.7 |
| 20260505232041 | 8 | 235 | 3.2 | 8.0 | 0.00 | 0.00 | 0.00 | 99 | 1010.4 |
| 20260505231538 | 8 | 112 | 1.6 | 3.2 | 0.00 | 0.00 | 0.00 | 99 | 1009.6 |
| 20260505231037 | 8 | 72 | 1.6 | 4.8 | 0.00 | 0.00 | 0.00 | 99 | 1009.6 |
| 20260505230534 | 8 | 135 | 3.2 | 4.8 | 0.00 | 0.00 | 0.00 | 99 | 1009.6 |
| 20260505230030 | 8 | 89 | 0.0 | 4.8 | 0.00 | 0.00 | 0.00 | 99 | 1009.4 |
| 20260505225527 | 9 | 1 | 0.0 | 1.6 | 0.00 | 0.00 | 0.00 | 99 | 1009.6 |
| 20260505225023 | 9 | 8 | 0.0 | 3.2 | 0.00 | 0.00 | 0.00 | 99 | 1009.5 |
| 20260505224520 | 9 | 121 | 4.8 | 6.4 | 0.00 | 0.00 | 0.00 | 99 | 1009.4 |
| 20260505224017 | 9 | 195 | 0.0 | 4.8 | 0.00 | 0.00 | 0.00 | 99 | 1009.8 |
| 20260505223514 | 9 | 124 | 0.0 | 3.2 | 0.00 | 0.00 | 0.00 | 99 | 1009.4 |
| 20260505223010 | 9 | 116 | 0.0 | 3.2 | 0.00 | 0.00 | 0.00 | 99 | 1009.5 |
| 20260505222507 | 9 | 340 | 0.0 | 3.2 | 0.00 | 0.00 | 0.00 | 99 | 1009.6 |
| 20260505222003 | 9 | 194 | 0.0 | 3.2 | 0.00 | 0.00 | 0.00 | 99 | 1009.7 |
| 20260505221500 | 10 | 147 | 3.2 | 4.8 | 0.00 | 0.00 | 0.00 | 99 | 1009.5 |
| 20260505220957 | 10 | 150 | 0.0 | 3.2 | 0.00 | 0.00 | 0.00 | 99 | 1009.6 |
| 20260505220454 | 10 | 248 | 4.8 | 8.0 | 0.00 | 0.00 | 0.00 | 99 | 1009.8 |
| 20260505215951 | 10 | 91 | 3.2 | 4.8 | 0.00 | 0.00 | 0.00 | 99 | 1009.4 |
| 20260505215450 | 10 | 139 | 3.2 | 4.8 | 0.00 | 0.00 | 0.00 | 99 | 1009.4 |
| 20260505214947 | 10 | 38 | 0.0 | 1.6 | 0.00 | 0.00 | 0.00 | 99 | 1009.4 |
| 20260505214445 | 10 | 48 | 3.2 | 4.8 | 0.00 | 0.00 | 0.00 | 99 | 1009.3 |
| 20260505213942 | 10 | 217 | 0.0 | 9.7 | 0.05 | 0.00 | 0.00 | 99 | 1009.5 |
| 20260505213439 | 10 | 261 | 3.2 | 4.8 | 0.00 | 0.00 | 0.00 | 99 | 1009.3 |
| 20260505212936 | 11 | 250 | 3.2 | 8.0 | 0.00 | 0.00 | 0.00 | 99 | 1009.8 |
| 20260505212432 | 11 | 216 | 1.6 | 6.4 | 0.00 | 0.00 | 0.00 | 99 | 1009.4 |
| 20260505211928 | 12 | 223 | 4.8 | 8.0 | 0.00 | 0.00 | 0.00 | 99 | 1008.9 |
| 20260505211426 | 12 | 235 | 0.0 | 8.0 | 0.00 | 0.00 | 0.00 | 99 | 1009.0 |
| 20260505210922 | 12 | 313 | 3.2 | 4.8 | 0.00 | 0.00 | 0.00 | 99 | 1008.6 |
| 20260505210423 | 12 | 180 | 0.0 | 3.2 | 0.00 | 0.00 | 0.00 | 99 | 1008.9 |
| 20260505205916 | 12 | 353 | 3.2 | 4.8 | 0.00 | 0.00 | 0.00 | 99 | 1008.8 |
| 20260505205415 | 12 | 229 | 0.0 | 3.2 | 0.00 | 0.00 | 0.00 | 99 | 1009.1 |
| 20260505204912 | 12 | 147 | 0.0 | 4.8 | 0.00 | 0.00 | 0.00 | 99 | 1009.2 |
| 20260505204409 | 12 | 178 | 0.0 | 3.2 | 0.00 | 0.00 | 0.00 | 98 | 1009.2 |
| 20260505203906 | 12 | 223 | 3.2 | 4.8 | 0.00 | 0.00 | 0.00 | 98 | 1009.2 |
| 20260505203403 | 12 | 196 | 3.2 | 4.8 | 0.00 | 0.00 | 0.00 | 98 | 1008.9 |
| 20260505202859 | 12 | 279 | 0.0 | 3.2 | 0.00 | 0.00 | 0.00 | 98 | 1008.9 |
| 20260505202355 | 12 | 113 | 0.0 | 3.2 | 0.00 | 0.00 | 0.00 | 97 | 1009.0 |
| 20260505201852 | 12 | 309 | 0.0 | 3.2 | 0.00 | 0.00 | 0.00 | 97 | 1009.0 |
| 20260505201349 | 12 | 290 | 0.0 | 6.4 | 0.00 | 0.00 | 0.00 | 97 | 1008.9 |
| 20260505200848 | 12 | 219 | 0.0 | 3.2 | 0.00 | 0.00 | 0.00 | 97 | 1008.9 |
| 20260505200344 | 13 | 236 | 4.8 | 6.4 | 0.00 | 0.00 | 0.00 | 96 | 1009.3 |
| 20260505195840 | 13 | 173 | 0.0 | 4.8 | 0.00 | 0.00 | 0.00 | 96 | 1009.2 |
| 20260505195337 | 13 | 19 | 0.0 | 4.8 | 0.00 | 0.00 | 0.00 | 96 | 1009.3 |
| 20260505194834 | 13 | 105 | 0.0 | 3.2 | 0.00 | 0.00 | 0.00 | 96 | 1009.3 |
| 20260505194331 | 13 | 236 | 0.0 | 4.8 | 0.00 | 0.00 | 0.00 | 95 | 1009.0 |
| 20260505193826 | 13 | 283 | 1.6 | 3.2 | 0.00 | 0.00 | 0.00 | 94 | 1009.1 |
| 20260505193325 | 13 | 240 | 0.0 | 1.6 | 0.00 | 0.00 | 0.00 | 94 | 1009.2 |
| 20260505192822 | 13 | 240 | 0.0 | 4.8 | 0.00 | 0.00 | 0.00 | 93 | 1009.1 |
| 20260505192320 | 14 | 121 | 3.2 | 4.8 | 0.00 | 0.00 | 0.00 | 93 | 1009.1 |
| 20260505191817 | 14 | 169 | 3.2 | 4.8 | 0.00 | 0.00 | 0.00 | 92 | 1009.2 |
| 20260505191316 | 14 | 283 | 0.0 | 3.2 | 0.00 | 0.00 | 0.00 | 91 | 1009.2 |
| 20260505190812 | 15 | 241 | 1.6 | 6.4 | 0.00 | 0.00 | 0.00 | 89 | 1009.2 |
| 20260505190308 | 15 | 139 | 0.0 | 6.4 | 0.00 | 0.00 | 0.00 | 88 | 1009.3 |
| 20260505185804 | 15 | 322 | 0.0 | 6.4 | 0.00 | 0.00 | 0.00 | 85 | 1009.2 |
| 20260505185300 | 16 | 19 | 0.0 | 3.2 | 0.00 | 0.00 | 0.00 | 82 | 1009.2 |
| 20260505184756 | 16 | 114 | 0.0 | 3.2 | 0.00 | 0.00 | 0.00 | 80 | 1009.3 |
| 20260505184254 | 16 | 19 | 0.0 | 6.4 | 0.00 | 0.00 | 0.00 | 80 | 1009.4 |
| 20260505183751 | 16 | 291 | 1.6 | 6.4 | 0.00 | 0.00 | 0.00 | 80 | 1009.2 |
| 20260505183248 | 16 | 138 | 3.2 | 4.8 | 0.00 | 0.00 | 0.00 | 80 | 1009.2 |
| 20260505182744 | 16 | 243 | 0.0 | 3.2 | 0.00 | 0.00 | 0.00 | 80 | 1009.1 |
| 20260505182241 | 16 | 222 | 3.2 | 4.8 | 0.00 | 0.00 | 0.00 | 80 | 1009.3 |
| 20260505181737 | 16 | 152 | 1.6 | 8.0 | 0.00 | 0.00 | 0.00 | 79 | 1009.3 |
| 20260505181235 | 16 | 231 | 0.0 | 3.2 | 0.00 | 0.00 | 0.00 | 79 | 1009.3 |
| 20260505180731 | 16 | 47 | 3.2 | 8.0 | 0.00 | 0.00 | 0.00 | 79 | 1009.2 |
| 20260505180228 | 16 | 257 | 0.0 | 8.0 | 0.00 | 0.00 | 0.00 | 78 | 1009.3 |
| 20260505175724 | 16 | 235 | 3.2 | 4.8 | 0.00 | 0.00 | 0.00 | 77 | 1009.2 |
| 20260505175221 | 16 | 269 | 0.0 | 9.7 | 0.00 | 0.00 | 0.00 | 77 | 1008.9 |
| 20260505174718 | 16 | 238 | 6.4 | 8.0 | 0.00 | 0.00 | 0.00 | 78 | 1009.0 |
| 20260505174215 | 16 | 114 | 1.6 | 4.8 | 0.00 | 0.00 | 0.00 | 79 | 1009.1 |
| 20260505173711 | 16 | 192 | 1.6 | 8.0 | 0.00 | 0.00 | 0.00 | 78 | 1009.2 |
| 20260505173208 | 16 | 221 | 3.2 | 8.0 | 0.00 | 0.00 | 0.00 | 78 | 1008.9 |
| 20260505172705 | 16 | 220 | 4.8 | 8.0 | 0.00 | 0.00 | 0.00 | 77 | 1008.8 |
| 20260505172201 | 16 | 285 | 1.6 | 8.0 | 0.00 | 0.00 | 0.00 | 77 | 1008.9 |
| 20260505171701 | 16 | 186 | 1.6 | 6.4 | 0.00 | 0.00 | 0.00 | 77 | 1008.8 |
| 20260505171159 | 16 | 227 | 1.6 | 9.7 | 0.00 | 0.00 | 0.00 | 77 | 1008.8 |
| 20260505170655 | 16 | 218 | 4.8 | 12.9 | 0.00 | 0.00 | 0.00 | 77 | 1008.8 |
| 20260505170152 | 16 | 262 | 6.4 | 9.7 | 0.00 | 0.00 | 0.00 | 76 | 1008.9 |
| 20260505165652 | 16 | 206 | 1.6 | 11.3 | 0.00 | 0.00 | 0.00 | 76 | 1008.9 |
| 20260505165148 | 16 | 264 | 3.2 | 12.9 | 0.00 | 0.00 | 0.00 | 75 | 1008.7 |
| 20260505164644 | 17 | 278 | 4.8 | 8.0 | 0.00 | 0.00 | 0.00 | 72 | 1008.7 |
| 20260505164142 | 17 | 268 | 0.0 | 6.4 | 0.00 | 0.00 | 0.00 | 69 | 1008.5 |
| 20260505163640 | 18 | 196 | 3.2 | 9.7 | 0.00 | 0.00 | 0.00 | 68 | 1008.6 |
| 20260505163138 | 18 | 241 | 6.4 | 14.5 | 0.00 | 0.00 | 0.00 | 64 | 1008.2 |
| 20260505162635 | 20 | 256 | 4.8 | 11.3 | 0.00 | 0.00 | 0.00 | 63 | 1008.2 |
| 20260505162132 | 20 | 209 | 4.8 | 8.0 | 0.00 | 0.00 | 0.00 | 65 | 1008.0 |
| 20260505161629 | 20 | 215 | 9.7 | 16.1 | 0.00 | 0.00 | 0.00 | 62 | 1008.2 |
| 20260505161126 | 20 | 137 | 6.4 | 9.7 | 0.00 | 0.00 | 0.00 | 62 | 1008.0 |
| 20260505160624 | 20 | 313 | 3.2 | 14.5 | 0.00 | 0.00 | 0.00 | 63 | 1008.2 |
| 20260505160121 | 20 | 117 | 0.0 | 12.9 | 0.00 | 0.00 | 0.00 | 61 | 1008.2 |
| 20260505153101 | 18 | 235 | 8.0 | 17.7 | 0.00 | 0.00 | 0.00 | 66 | 1007.7 |
| 20260505152557 | 18 | 199 | 8.0 | 14.5 | 0.00 | 0.00 | 0.00 | 66 | 1007.4 |
| 20260505152053 | 18 | 230 | 11.3 | 14.5 | 0.00 | 0.00 | 0.00 | 67 | 1007.7 |
| 20260505151548 | 18 | 200 | 4.8 | 9.7 | 0.00 | 0.00 | 0.00 | 68 | 1007.5 |
| 20260505151046 | 18 | 178 | 4.8 | 12.9 | 0.00 | 0.00 | 0.00 | 69 | 1007.9 |
| 20260505150542 | 17 | 188 | 9.7 | 22.5 | 0.00 | 0.00 | 0.00 | 71 | 1008.1 |
| 20260505140508 | 18 | 215 | 25.7 | 25.7 | 0.00 | 0.00 | 0.00 | 72 | 1007.4 |